Probability
0 0 0 0 0 0 0 0 0 0 0 0 0 0 0 0 0 0 0 0 0 0 0 0 0 0 0 0 0 0 0 0 0 0 0 0 0 0 0 0 0 0 0
0 0 0 0 0 0 0 0 0 0 0 0 0 0 0 0 0 0 0 0 0 0 0 0 0 0 0 0 0 0 0 0 0 0 0 0 0 0 0 0 0 0 0
0 0 0 0 0 0 0 0 0 0 0 0 0 0 0 0 0 0 0 0 0 0 0 0 0 0 0 0 0 0 0 0 0 0 0 0 0 0 0 0 0 0 0
0 0 0 0 0 0 0 0 0 0 0 0 0 0 0 0 0 0 0 0 0 0 0 0 0 0 0 0 0 0 0 0 0 0 0 0 0 0 0 0 0 0 0
0 0 0 0 0 0 0 0 0 0 0 0 0 0 0 0 0 0 0 0 0 0 0 0 0 0 0 0 0 0 0 0 0 0 0 0 0 0 0 0 0 0 0
0 0 0 0 0 0 0 0 0 0 0 0 0 0 0 0 0 0 0 0 0 0 0 0 0 0 0 0 0 0 0 0 0 0 0 0 0 0 0 0 0 0 0
0 0 0 0 0 0 0 0 0 0 0 0 0 0 0 0 0 0 0 0 0 0 0 0 0 0 0 0 0 0 0 0 0 0 0 0 0 0 0 0 0 0 0
0 0 0 0 0 0 0 0 0 0 0 0 0 0 0 0 0 0 0 0 0 0 0 0 0 0 0 0 0 0 0 0 0 0 0 0 0 0 0 0 0 0 0
0 0 0 0 0 0 0 0 0 0 0 0 0 0 0 0 0 0 0 0 0 0 0 0 0 0 0 0 0 0 0 0 0 0 0 0 0 0 0 0 0 0 0
0 0 0 0 0 0 0 0 0 0 0 0 0 0 0 0 0 0 0 0 0 0 0 0 0 0 0 0 0 0 0 0 0 0 0 0 0 0 0 0 0 0 0
0 0 0 0 0 0 0 0 0 0 0 0 0 0 0 0 0 0 0 0 0 0 0 0 0 0 0 0 0 0 0 0 0 0 0 0 0 0 0 0 0 0 0
0 0 0 0 0 0 0 0 0 0 0 0 0 0 0 0 0 0 0 0 0 0 0 0 0 0 0 0 0 0 0 0 0 0 0 0 0 0 0 0 0 0 0
0 0 0 0 0 0 0 0 0 0 0 0 0 0 0 0 0 0 0 0 0 0 0 0 0 0 0 0 0 0 0 0 0 0 0 0 0 0 0 0 0 0 0
0 0 0 0 0 0 0 0 0 0 0 0 0 0 0 0 0 0 0 0 0 0 0 0 0 0 0 0 0 0 0 0 0 0 0 0 0 0 0 0 0 0 0
0 0 0 0 0 0 0 0 0 0 0 0 0 0 0 0 0 0 0 0 0 0 0 0 0 0 0 0 0 0 0 0 0 0 0 0 0 0 0 0 0 0 0
0 0 0 0 0 0 0 0 0 0 0 0 0 0 0 0 0 0 0 0 0 0 0 0 0 0 0 0 0 0 0 0 0 0 0 0 0 0 0 0 0 0 0
0 0 0 0 0 0 0 0 0 0 0 0 0 0 0 0 0 0 0 0 0 0 0 0 0 0 0 0 0 0 0 0 0 0 0 0 0 0 0 0 0 0 0
0 0 0 0 0 0 0 0 0 0 0 0 0 0 0 0 0 0 0 0 0 0 0 0 0 0 0 0 0 0 0 0 0 0 0 0 0 0 0 0 0 0 0
0 0 0 0 0 0 0 0 0 0 0 0 0 0 0 0 0 0 0 0 0 0 0 0 0 0 0 0 0 0 0 0 0 0 0 0 0 0 0 0 0 0 0
0 0 0 0 0 0 0 0 0 0 0 0 0 0 0 0 0 0 0 0 0 0 0 0 0 0 0 0 0 0 0 0 0 0 0 0 0 0 0 0 0 0 0
0 0 0 0 0 0 0 0 0 0 0 0 0 0 0 0 0 0 0 0 0 0 0 0 0 0 0 0 0 0 0 0 0 0 0 0 0 0 0 0 0 0 0
0 0 0 0 0 0 0 0 0 0 0 0 0 0 0 0 0 0 0 0 0 0 0 0 0 0 0 0 0 0 0 0 0 0 0 0 0 0 0 0 0 0 0
0 0 0 0 0 0 0 0 0 0 0 0 0 0 0 0 0 0 0 0 0 0 0 0 0 0 0 0 0 0 0 0 0 0 0 0 0 0 0 0 0 0 0
0 0 0 0 0 0 0 0 0 0 0 0 0 0 0 0 0 0 0 0 0 0 0 0 0 0 0 0 0 0 0 0 0 0 0 0 0 0 0 0 0 0 0
0 0 0 0 0 0 0 0 0 0 0 0 0 0 0 0 0 0 0 0 0 0 0 0 0 0 0 0 0 0 0 0 0 0 0 0 0 0 0 0 0 0 0
0 0 0 0 0 0 0 0 0 0 0 0 0 0 0 0 0 0 0 0 0 0 0 0 0 0 0 0 0 0 0 0 0 0 0 0 0 0 0 0 0 0 0
Wind_Speed
4 3 3 3 3 3 4 4 3 3 1 1 2 2 3 4 4 4 4 9 10 9 8 8 7 6 5 4 3 3 2 0 2 3 5 6 6 6 6 6 7 8 8
4 4 4 3 3 3 4 4 5 4 2 1 1 2 2 3 3 4 4 6 10 11 9 9 9 8 7 6 5 5 4 3 2 2 3 4 5 5 6 6 6 7 7
3 3 3 3 3 3 3 2 3 2 2 2 2 2 2 2 3 4 4 3 5 9 11 10 9 9 8 8 7 6 6 5 3 1 0 1 2 2 3 3 3 3 4
2 2 1 1 1 2 2 2 2 2 2 2 2 1 1 2 3 4 3 3 3 4 7 11 10 9 9 9 8 7 7 6 4 3 2 3 3 3 2 2 2 2 2
9 6 4 4 3 2 1 1 1 0 1 2 2 2 2 3 4 4 4 4 4 4 4 8 11 10 9 9 10 9 9 8 7 6 5 5 6 6 5 4 4 3 3
13 10 7 8 6 4 3 3 3 2 2 2 2 3 3 4 4 5 5 4 3 4 4 4 5 7 10 10 11 12 11 10 9 8 8 8 8 8 7 7 6 6 6
14 12 9 9 8 6 5 4 3 3 3 2 2 3 3 3 4 4 3 3 4 4 4 4 4 4 5 10 11 13 14 13 12 12 11 10 10 10 9 9 9 9 8
14 12 12 9 8 7 8 6 4 2 2 2 2 3 4 5 4 2 2 2 3 2 4 4 4 5 4 4 8 14 16 16 16 15 13 13 12 12 12 11 11 11 10
13 13 12 10 10 9 7 7 5 4 2 2 1 2 3 4 5 3 3 2 3 3 4 4 5 5 5 4 5 10 15 17 18 17 16 15 15 14 14 13 13 13 12
13 13 12 11 10 9 9 8 6 4 3 3 2 0 1 1 3 6 4 3 3 4 5 5 5 6 6 5 7 12 16 17 18 18 19 18 17 16 16 15 15 14 14
12 12 11 11 10 8 9 9 8 7 4 3 3 2 2 1 3 4 7 5 4 3 4 5 5 5 6 6 6 11 17 19 19 18 18 19 18 18 17 17 16 16 15
8 11 10 9 9 8 9 8 7 7 6 5 4 3 2 3 2 3 6 7 6 5 5 4 5 6 6 6 9 16 19 20 21 20 18 17 18 19 19 18 18 17 17
6 8 8 7 7 7 7 7 7 7 7 6 5 4 3 4 4 4 6 7 8 5 4 4 5 5 5 5 7 16 17 21 22 22 20 18 19 19 20 20 19 19 18
3 5 6 6 6 6 7 6 5 5 6 5 6 5 4 4 4 4 4 5 9 7 4 6 4 5 5 5 9 16 10 20 22 23 23 21 21 20 20 21 21 21 20
3 4 4 5 5 5 5 5 4 5 5 5 5 5 4 4 4 5 4 4 5 9 10 4 4 3 4 4 10 7 7 16 21 22 23 23 22 23 23 23 23 22 22
3 4 5 5 5 5 5 5 4 5 5 5 4 6 5 4 5 5 5 5 5 7 10 4 4 5 6 6 10 8 8 18 20 22 23 24 24 24 24 24 24 24 24
4 5 5 6 6 6 6 6 6 6 7 7 6 7 7 7 6 5 5 5 6 6 11 10 6 6 7 8 8 7 7 8 9 19 23 25 25 25 24 25 25 25 24
4 4 5 5 6 6 6 6 8 8 8 9 9 9 9 7 8 6 6 7 7 7 9 14 10 7 8 8 9 10 8 7 8 17 23 25 26 26 25 25 25 24 24
4 4 4 5 6 7 7 7 8 9 9 10 10 11 11 10 11 8 8 9 8 9 8 11 12 8 7 6 8 8 8 8 8 13 20 23 25 26 27 27 26 24 22
4 4 5 5 6 8 9 9 10 10 11 11 11 12 12 11 13 11 11 11 9 10 9 11 11 9 8 7 7 7 8 6 8 8 14 16 20 24 28 28 25 22 21
4 5 6 6 7 7 7 11 12 12 13 15 14 13 13 16 20 17 14 11 10 10 10 11 12 10 9 7 8 5 10 7 9 7 8 9 9 10 13 20 23 22 24
4 5 6 7 8 8 16 20 17 14 15 16 17 16 15 16 19 24 26 26 22 16 12 12 14 15 13 8 7 8 9 9 9 4 7 9 8 11 9 9 19 26 27
5 6 6 7 9 11 19 21 22 17 15 14 15 15 14 14 16 16 20 24 23 25 26 19 19 19 16 10 10 12 11 13 14 6 5 9 7 11 8 11 24 27 28
5 6 7 8 10 12 20 22 23 16 14 14 14 15 16 16 16 18 17 17 17 17 19 16 16 18 17 14 13 16 15 15 15 8 8 12 8 9 7 9 21 27 28
5 6 7 7 9 13 19 22 22 12 11 14 14 15 16 17 22 26 20 16 17 16 20 25 27 27 30 31 25 15 14 14 17 13 9 10 9 7 7 10 14 26 28
6 7 8 8 10 11 18 22 22 9 10 12 12 14 18 22 25 27 19 15 17 16 15 16 19 22 20 20 26 19 15 15 15 13 9 10 7 5 6 6 9 11 16
Wind_Direction
175 172 175 172 168 157 157 152 153 157 146 11 3 357 338 333 326 322 319 319 315 301 283 273 259 249 239 236 240 229 232 315 61 44 32 29 32 36 41 44 45 47 52
178 177 178 179 183 182 176 166 166 167 173 184 297 319 319 322 322 319 315 317 317 313 298 279 267 254 241 235 231 232 229 189 124 76 44 33 28 26 30 32 32 33 35
177 174 176 186 192 174 159 142 145 145 164 186 249 278 300 311 309 308 309 309 313 314 313 298 284 268 252 241 230 230 225 201 179 157 50 352 343 349 9 17 18 13 9
51 113 149 192 154 139 150 153 146 177 203 209 237 263 288 297 293 291 291 293 299 306 312 310 309 295 270 254 236 230 222 210 210 223 248 273 277 273 285 296 308 322 320
36 46 41 33 55 70 74 92 72 80 266 263 265 270 268 267 271 277 273 273 276 287 299 309 317 316 299 267 245 236 228 226 229 237 248 261 266 259 256 258 260 271 274
36 41 42 36 36 39 34 31 33 29 14 348 311 284 269 262 260 255 258 263 265 276 292 304 316 318 313 296 264 249 242 239 240 242 246 255 260 258 254 253 254 255 256
39 42 40 38 34 37 33 31 35 26 20 11 337 315 300 267 265 273 280 285 291 302 310 306 311 313 314 308 293 268 255 251 251 246 243 248 252 254 252 252 251 250 249
38 40 39 38 33 36 36 33 35 25 21 22 2 335 328 330 341 325 300 274 292 313 301 295 294 291 297 302 299 291 274 264 263 259 247 242 247 251 250 249 249 248 247
39 40 38 38 34 35 31 23 23 27 4 3 27 348 333 314 319 314 329 310 287 276 269 264 262 262 265 269 283 289 286 281 273 271 263 245 241 246 248 249 248 247 246
39 37 37 37 36 34 28 20 19 14 9 354 345 347 236 270 298 309 308 302 283 271 274 276 270 264 256 254 257 264 271 274 275 274 273 260 243 240 244 247 247 246 244
39 36 36 36 34 32 26 21 19 20 16 3 345 326 307 260 232 262 292 303 307 277 266 259 258 259 255 249 249 254 260 264 265 267 268 263 249 239 241 245 247 245 243
32 30 32 33 31 28 25 18 17 21 17 7 353 340 320 301 295 273 284 297 290 276 269 251 247 249 247 242 247 254 257 259 260 260 260 257 247 238 239 244 247 246 242
27 20 24 25 25 20 19 16 19 15 11 5 353 339 324 298 290 284 286 293 292 286 267 253 238 242 247 238 246 252 252 254 256 256 254 252 246 237 236 241 246 247 244
32 17 20 21 19 17 16 12 14 5 359 351 344 334 320 308 305 296 286 295 299 293 263 258 258 239 246 243 252 257 250 250 253 254 252 249 246 241 238 240 243 246 244
27 20 18 16 10 10 9 4 359 348 340 334 322 314 308 301 299 292 285 274 278 294 296 264 259 262 256 255 263 259 243 251 253 254 253 250 246 241 239 240 241 243 242
16 8 8 4 359 357 356 351 338 327 324 317 307 303 299 296 293 287 282 275 256 263 279 284 278 281 275 266 266 256 245 255 254 253 253 251 247 242 239 239 239 240 240
360 358 352 348 345 343 341 335 325 318 313 307 301 296 292 289 285 282 279 274 267 255 270 281 275 276 271 270 275 266 254 252 253 251 250 250 248 244 240 238 237 238 238
345 340 336 333 330 328 322 317 311 310 302 301 300 294 290 288 281 278 274 271 269 260 264 279 285 283 270 266 267 269 264 256 248 253 252 250 248 245 241 237 236 235 235
336 336 335 328 323 319 314 305 297 295 290 288 288 287 288 286 285 280 272 273 271 271 264 272 279 278 276 265 269 265 257 259 254 256 257 253 249 245 242 238 234 231 230
340 340 333 326 323 321 316 310 310 304 297 292 289 285 284 281 282 282 279 274 273 273 270 271 275 274 272 268 262 267 268 253 256 251 254 252 248 245 242 238 235 228 224
345 335 331 328 327 320 315 318 315 309 305 303 300 296 293 292 289 286 283 280 275 274 274 275 277 275 269 263 260 254 265 269 260 239 250 249 245 242 237 238 233 226 223
340 335 332 327 323 320 317 318 316 311 306 304 304 304 301 296 294 294 292 289 285 281 279 276 278 275 274 263 264 262 267 269 270 225 228 247 229 240 235 228 233 230 226
335 331 324 321 313 309 314 316 314 310 303 301 300 300 299 298 299 295 293 291 288 285 282 280 278 277 281 280 276 271 264 261 261 237 221 252 229 241 232 233 236 235 232
327 319 313 306 302 303 311 313 312 308 301 297 296 296 295 296 294 292 289 285 284 283 281 279 275 278 279 279 272 273 274 273 270 247 216 253 238 239 226 226 236 235 235
309 302 294 298 299 301 307 309 308 303 297 296 294 291 290 289 289 291 290 287 286 286 287 283 280 280 281 282 279 273 263 258 261 255 222 241 244 233 229 228 230 233 234
294 298 299 296 292 290 298 305 309 300 294 291 289 285 284 285 287 289 287 284 282 282 279 276 278 279 281 282 282 274 269 264 262 259 225 223 232 205 241 229 217 220 230